This is the latest recevied weather packets stored in our database for station/object 4S6DRJ-13. If no packets are shown the sender has not sent any weather packets the latest 10 day(s).
| Time | Temp. | Humidity | Pressure | Rain* | Wind** | Luminosity | Snow |
|---|---|---|---|---|---|---|---|
| 1778447303 | 26.11° C | 92% | 1003.6 hPa | 0 mm | 0.45 m/s, 107° | 0 W/m² | - |
| 1778447242 | 26.11° C | 92% | 1003.6 hPa | 0 mm | 0.45 m/s, 101° | 0 W/m² | - |
| 1778447181 | 26.11° C | 92% | 1003.3 hPa | 0 mm | 0 m/s | 0 W/m² | - |
| 1778447120 | 26.11° C | 92% | 1003.5 hPa | 0 mm | 0 m/s | 0 W/m² | - |
| 1778447059 | 26.11° C | 92% | 1003.6 hPa | 0 mm | 0 m/s | 0 W/m² | - |
| 1778446998 | 26.11° C | 92% | 1003.4 hPa | 0 mm | 0 m/s | 0 W/m² | - |
| 1778446936 | 26.11° C | 92% | 1003.5 hPa | 0 mm | 0 m/s | 0 W/m² | - |
| 1778446876 | 26.11° C | 92% | 1003.8 hPa | 0 mm | 0.45 m/s, 184° | 0 W/m² | - |
| 1778446815 | 26.11° C | 92% | 1003.6 hPa | 0 mm | 0.45 m/s, 96° | 0 W/m² | - |
| 1778446754 | 26.11° C | 92% | 1003.5 hPa | 0 mm | 0.89 m/s, 73° | 0 W/m² | - |
| 1778446692 | 26.11° C | 92% | 1003.7 hPa | 0 mm | 0 m/s | 0 W/m² | - |
| 1778446633 | 26.11° C | 92% | 1003.7 hPa | 0 mm | 0 m/s | 0 W/m² | - |
| 1778446571 | 26.11° C | 92% | 1003.6 hPa | 0 mm | 0.89 m/s, 131° | 0 W/m² | - |
| 1778446510 | 26.11° C | 92% | 1003.7 hPa | 0 mm | 0.89 m/s, 135° | 0 W/m² | - |
| 1778446449 | 26.11° C | 92% | 1003.7 hPa | 0 mm | 0.45 m/s, 99° | 0 W/m² | - |
| 1778446388 | 26.11° C | 92% | 1003.5 hPa | 0 mm | 0.45 m/s, 139° | 0 W/m² | - |
| 1778446327 | 26.11° C | 92% | 1003.5 hPa | 0 mm | 0.45 m/s, 118° | 0 W/m² | - |
| 1778446266 | 26.11° C | 92% | 1003.6 hPa | 0 mm | 0.89 m/s, 145° | 0 W/m² | - |
| 1778446205 | 26.11° C | 92% | 1003.5 hPa | 0 mm | 0.89 m/s, 129° | 0 W/m² | - |
| 1778446144 | 26.11° C | 92% | 1003.6 hPa | 0 mm | 0.89 m/s, 111° | 0 W/m² | - |
| 1778446083 | 26.11° C | 92% | 1003.7 hPa | 0 mm | 0.89 m/s, 102° | 0 W/m² | - |
| 1778446022 | 26.11° C | 92% | 1003.6 hPa | 0 mm | 0.45 m/s, 111° | 0 W/m² | - |
| 1778445961 | 26.11° C | 92% | 1003.6 hPa | 0 mm | 0.45 m/s, 109° | 0 W/m² | - |
| 1778445899 | 26.11° C | 92% | 1003.7 hPa | 0 mm | 0.89 m/s, 95° | 0 W/m² | - |
| 1778445839 | 26.11° C | 92% | 1003.7 hPa | 0 mm | 0.45 m/s, 117° | 0 W/m² | - |
* Rain latest hour (hover to see other rain measurements)
** Current wind speed in m/s (hover to see current wind gust speed)